Tracking 29892 objects as of 21-Nov-2024
HD Live streaming from Space Station
objects crossing your sky now

SL-12 R/B(2)

Track SL-12 R/B(2) now!


NORAD ID: 21925
Int'l Code: 1992-017D
Perigee: 35,483.7 km
Apogee: 35,648.1 km
Inclination: 13.5 °
Period: 1,424.5 minutes
Semi major axis: 41936 km
RCS: 2.8091 m2 (large)
Launch date: April 2, 1992
Source: Commonwealth of Independent States (former USSR) (CIS)
Launch site: TYURATAM MISSILE AND SPACE COMPLEX (TTMTR)

Note: This is a ROCKET BODY
Your satellite tracking list
Your tracking list is empty




NASA's NSSDC Master Catalog

Two Line Element Set (TLE):
1 21925U 92017D   24325.69549361  .00000006  00000-0  00000-0 0  9993
2 21925  13.5030 344.8148 0019606  59.8722 121.3073  1.01090086119519
Source of the keplerian elements: AFSPC